TimeAKST,TemperatureF,Dew PointF,Humidity,Sea Level PressureIn,VisibilityMPH,Wind Direction,Wind SpeedMPH,Gust SpeedMPH,PrecipitationIn,Events,Conditions,WindDirDegrees,DateUTC
12:53 AM,34.0,25.0,70,29.57,10.0,SSE,16.1,24.2,N/A,,Clear,160,2012-12-31 09:53:00
1:53 AM,33.1,24.1,70,29.59,10.0,SSE,17.3,-,N/A,,Clear,150,2012-12-31 10:53:00
3:53 AM,32.0,24.1,73,29.64,10.0,SSE,16.1,-,N/A,,Scattered Clouds,160,2012-12-31 12:53:00
4:53 AM,30.9,23.0,72,29.66,10.0,South,16.1,-,N/A,,Clear,170,2012-12-31 13:53:00
5:53 AM,30.9,23.0,72,29.68,10.0,SSE,19.6,-,N/A,,Clear,160,2012-12-31 14:53:00
6:00 AM,30.9,23.0,72,29.60,10.0,SSE,19.6,-,N/A,,Scattered Clouds,160,2012-12-31 15:00:00
6:53 AM,30.9,23.0,72,29.71,10.0,South,16.1,-,N/A,,Scattered Clouds,170,2012-12-31 15:53:00
7:53 AM,30.0,23.0,75,29.74,10.0,SSE,12.7,-,N/A,,Scattered Clouds,160,2012-12-31 16:53:00
8:53 AM,30.0,23.0,75,29.76,10.0,SSE,17.3,-,N/A,,Scattered Clouds,160,2012-12-31 17:53:00
9:53 AM,30.0,23.0,75,29.81,10.0,South,17.3,-,N/A,,Scattered Clouds,170,2012-12-31 18:53:00
10:53 AM,30.0,24.1,79,29.85,10.0,South,16.1,-,N/A,,Scattered Clouds,170,2012-12-31 19:53:00
11:53 AM,28.9,23.0,78,29.88,10.0,SSE,13.8,-,N/A,,Scattered Clouds,160,2012-12-31 20:53:00
12:53 PM,28.9,23.0,78,29.89,10.0,South,10.4,-,N/A,,Scattered Clouds,170,2012-12-31 21:53:00
1:53 PM,30.0,23.0,75,29.89,10.0,South,10.4,-,N/A,,Scattered Clouds,170,2012-12-31 22:53:00
2:53 PM,30.0,23.0,75,29.91,10.0,South,13.8,-,N/A,,Scattered Clouds,170,2012-12-31 23:53:00
3:53 PM,28.9,21.9,75,29.93,10.0,SSE,17.3,-,N/A,,Scattered Clouds,160,2013-01-01 00:53:00
4:53 PM,26.1,21.0,81,29.93,10.0,SSE,12.7,-,N/A,,Scattered Clouds,160,2013-01-01 01:53:00
5:53 PM,27.0,21.0,78,29.92,10.0,South,13.8,-,N/A,,Scattered Clouds,170,2013-01-01 02:53:00
6:53 PM,28.0,21.9,78,29.92,10.0,South,8.1,-,N/A,,Scattered Clouds,170,2013-01-01 03:53:00
7:53 PM,28.0,21.9,78,29.91,10.0,SSE,9.2,-,N/A,,Mostly Cloudy,150,2013-01-01 04:53:00
8:53 PM,30.9,21.0,67,29.88,10.0,East,8.1,-,N/A,,Overcast,80,2013-01-01 05:53:00
9:28 PM,30.0,19.9,66,29.80,10.0,NE,5.8,-,N/A,,Overcast,40,2013-01-01 06:28:00
9:53 PM,28.0,19.0,69,29.89,10.0,NNE,8.1,-,N/A,,Clear,30,2013-01-01 06:53:00
10:53 PM,26.1,18.0,71,29.86,10.0,NNE,5.8,-,N/A,,Mostly Cloudy,30,2013-01-01 07:53:00
11:53 PM,27.0,17.1,66,29.84,10.0,SSE,3.5,-,N/A,,Clear,150,2013-01-01 08:53:00